Vertical_Velocity
-6 -1 4 -3 0 -1 0 3 3 -1 1 0 2 5 1 -0 -3 1 5 2 2 3 -4 2 0 2 1 1 1 2 -0 -0 1 1 1 1 0 2 1 -1 -0 0 -1 -1
2 2 -4 -1 2 -0 -3 -0 -1 1 1 -3 -3 1 -1 -4 8 2 -3 -3 3 -2 1 10 -0 2 3 3 1 0 -0 1 1 -1 1 1 -0 -1 1 2 1 -0 1 0
1 -1 -1 -1 3 1 0 1 -3 -4 2 -6 -2 -7 -1 -4 1 -4 -2 3 -2 3 4 6 2 1 2 4 0 0 -1 -1 1 1 -2 0 2 0 1 1 -1 -1 -1 -1
1 -2 -0 1 -1 0 2 -1 0 -2 -1 -4 -1 -23 5 -1 -4 4 -2 -4 -1 -2 3 5 6 -0 -3 0 -0 -1 -2 -2 -1 -1 1 -1 -1 1 2 1 1 -0 -1 -1
-3 -4 -0 -1 -1 -0 -2 0 -0 -2 -3 -4 7 -21 25 4 2 3 6 2 -4 -0 3 10 -1 -2 2 1 0 -2 1 -1 -2 -1 0 1 -2 1 -0 -0 1 2 1 -0
-1 1 -2 -2 -1 -0 -1 -1 -1 -1 -1 -9 8 -13 14 9 5 -0 0 3 -7 -5 5 5 0 -0 0 -1 -1 -1 -2 1 1 0 -1 0 0 -1 2 -2 -0 -3 -2 -3
-0 -1 -2 -1 -1 -1 -2 -0 -4 -5 -2 -4 4 -7 17 3 4 -1 -1 2 5 4 1 7 3 1 0 -0 -1 1 1 1 -0 0 0 1 1 1 -0 -1 -3 -2 -3 -2
3 -1 1 2 -2 -1 -3 -1 -3 -7 -2 -1 2 -2 0 2 1 -1 0 1 2 3 3 2 4 5 5 4 3 1 -0 -1 -0 2 -0 -1 -2 -1 -1 -2 -1 -3 -3 -6
-2 7 3 0 0 -1 2 1 -2 -3 -3 -4 0 2 0 -1 1 1 1 3 2 2 1 1 4 4 1 -1 -1 -0 -0 -0 1 0 -2 -1 -1 -1 -3 -3 -3 -1 -4 1
-3 -4 6 3 2 -2 2 1 -3 1 -8 0 1 2 -2 -1 2 4 3 5 5 3 2 1 -1 -2 -1 1 1 2 0 -2 -1 -3 -1 -4 -6 -2 1 1 -2 -1 0 -4
-0 2 7 2 4 1 -1 2 -0 0 -1 -4 2 3 -0 1 2 3 4 5 3 0 -0 0 1 2 1 -2 -2 -1 -1 -2 -1 -0 -0 -2 -1 -0 -2 -1 -2 -2 -1 -7
2 -8 1 8 4 1 2 0 1 -0 -1 -2 -2 14 1 -0 1 2 -1 0 -1 -2 3 3 1 0 -1 -0 0 -0 -0 -1 -2 -1 -1 -0 -1 -3 -3 -2 -2 -4 -4 -4
4 -11 0 4 5 1 4 4 2 -4 -0 4 -6 7 2 1 -3 -2 -2 -1 -0 3 2 1 -2 -3 -1 -0 -1 -0 -0 -2 -1 0 -3 -2 -1 -1 -1 -0 -3 -2 -3 -10
-2 5 -1 -2 8 2 3 6 5 -1 -5 8 -0 8 3 -2 -2 -5 -4 3 7 0 1 -2 -2 0 -1 -1 -1 -0 1 -1 -1 -1 -2 -1 -2 -2 -0 -3 -1 -2 -11 -9
0 -4 -3 6 5 5 -1 1 3 -2 7 -20 33 -12 15 -7 -13 2 0 -2 -1 -0 -3 -3 -2 -3 -3 -2 -3 -0 -0 -1 -1 -1 -1 -1 -2 -1 -2 -2 -1 -7 -9 -6
6 -2 2 2 5 -1 4 1 2 -2 7 -3 -2 12 -19 0 -2 4 -0 -1 -2 -0 4 2 1 2 -0 -1 -1 -0 -0 -1 -0 -0 -1 0 -2 -1 -2 -3 -6 -8 -4 -5
6 4 3 -4 -1 -2 7 -0 -2 0 -1 -8 -2 1 -1 -0 -2 -1 2 0 1 -1 0 -0 1 0 -1 -1 0 0 0 -0 0 -1 1 0 -2 -2 -3 -3 -5 -7 -5 -8
5 2 3 -1 -2 9 4 2 3 4 3 -2 -6 -2 0 3 -2 3 -6 -0 -1 -0 1 -2 0 1 0 -2 1 1 2 1 0 1 1 1 -2 -2 -1 -5 -6 -4 -5 -3
4 4 0 -2 -0 8 -8 4 4 7 9 6 7 6 6 6 -10 -6 -4 -2 -1 1 -0 -1 0 3 1 -2 1 3 3 2 -1 -0 0 1 -1 -3 -0 -5 -6 -1 -7 -2
3 5 -5 -3 -3 2 -3 -1 4 -8 5 9 4 5 6 4 -1 6 4 -0 -1 -0 -0 -0 -3 1 1 1 -4 0 2 1 -1 -1 2 1 -1 -4 -4 -4 -6 -1 -5 -1
5 -2 -9 -3 1 -1 -3 -2 5 -0 -12 3 -3 -3 4 -3 -6 7 0 4 2 -2 -3 1 -1 -2 -0 3 -3 -2 1 -0 0 -2 2 2 -1 -4 -3 -4 -2 -2 -4 2
-11 -13 -9 -6 -7 -6 -1 1 -9 -6 0 -10 0 -6 -7 -2 1 0 4 1 -3 2 -1 -2 -2 -0 -1 0 -2 -2 0 1 1 -1 -2 6 -2 -4 -1 -3 -4 -1 -6 2
-6 -5 -4 1 -6 -6 -11 -9 -6 -7 -4 -3 -5 2 -7 -10 1 -7 -3 -3 0 0 1 -2 -2 -1 -2 -0 -2 -2 -1 2 1 2 -3 3 0 -4 -2 -3 -5 -1 -5 5
-3 -1 2 3 3 2 1 -2 -2 -0 -2 -1 -2 -6 -2 0 -4 -0 -7 -1 2 1 3 1 -0 -2 -1 -0 -2 -1 -4 2 2 3 1 -2 2 -1 -4 0 -8 -3 -1 -0
-1 -3 2 -0 2 4 1 -0 -0 4 1 -0 1 -1 2 3 1 -0 -4 -5 -2 0 2 2 2 -1 -1 1 -2 2 -3 -0 1 3 3 0 -3 2 -3 -2 -5 -9 4 -3
-1 -4 -3 -3 -2 -2 0 4 3 4 5 3 2 5 5 5 3 1 -2 -3 -3 1 -0 1 1 -1 0 0 -1 1 -2 -1 0 3 2 2 -0 1 1 -2 -6 -7 -10 10
Height
5609 5609 5608 5607 5607 5607 5607 5608 5608 5610 5611 5613 5616 5620 5622 5625 5630 5635 5641 5645 5650 5654 5657 5662 5666 5671 5675 5679 5683 5686 5690 5694 5698 5701 5704 5706 5708 5711 5714 5716 5719 5722 5725 5728
5605 5602 5600 5599 5599 5598 5598 5598 5598 5599 5598 5599 5600 5608 5609 5614 5620 5622 5625 5629 5635 5639 5645 5649 5652 5657 5661 5666 5669 5672 5676 5681 5685 5687 5691 5693 5695 5698 5700 5703 5706 5708 5711 5715
5598 5596 5593 5592 5591 5589 5590 5589 5589 5589 5588 5588 5589 5595 5597 5601 5605 5607 5611 5616 5621 5627 5633 5635 5639 5643 5647 5651 5655 5658 5662 5667 5670 5673 5676 5679 5681 5683 5686 5689 5691 5694 5698 5700
5593 5589 5587 5585 5583 5582 5581 5580 5580 5579 5579 5579 5581 5582 5587 5589 5592 5595 5598 5602 5606 5612 5618 5622 5625 5629 5633 5637 5640 5645 5649 5652 5656 5659 5661 5664 5667 5670 5672 5675 5677 5679 5682 5684
5588 5584 5581 5578 5576 5574 5573 5572 5571 5570 5569 5570 5573 5571 5576 5580 5582 5583 5586 5589 5592 5597 5603 5608 5610 5615 5619 5624 5628 5631 5635 5638 5641 5643 5647 5650 5653 5656 5657 5659 5661 5663 5665 5667
5580 5578 5576 5573 5570 5568 5566 5564 5563 5562 5562 5562 5564 5563 5564 5570 5570 5571 5574 5576 5578 5582 5589 5593 5597 5601 5605 5610 5613 5617 5621 5623 5626 5629 5633 5636 5639 5642 5643 5645 5646 5647 5648 5650
5574 5571 5568 5566 5564 5562 5559 5557 5555 5555 5554 5554 5554 5556 5558 5557 5559 5561 5563 5565 5567 5570 5574 5579 5583 5587 5591 5595 5599 5602 5605 5609 5613 5616 5620 5623 5625 5628 5629 5630 5631 5631 5632 5633
5565 5565 5561 5559 5557 5555 5552 5551 5549 5545 5545 5546 5546 5547 5548 5547 5549 5550 5553 5555 5558 5560 5563 5566 5570 5574 5577 5580 5584 5587 5591 5596 5599 5603 5606 5608 5611 5613 5614 5614 5615 5614 5615 5615
5554 5554 5552 5550 5548 5547 5545 5543 5542 5539 5538 5537 5538 5539 5540 5539 5540 5542 5544 5545 5548 5550 5552 5555 5559 5562 5564 5568 5572 5576 5579 5583 5586 5589 5592 5595 5597 5598 5598 5598 5598 5599 5599 5599
5544 5542 5543 5541 5539 5537 5536 5536 5535 5532 5531 5531 5530 5530 5531 5532 5533 5534 5535 5537 5539 5541 5543 5545 5548 5550 5553 5556 5560 5563 5567 5570 5573 5577 5579 5581 5583 5584 5584 5584 5584 5583 5581 5579
5532 5531 5532 5530 5528 5526 5526 5525 5524 5524 5524 5522 5522 5524 5524 5524 5525 5526 5527 5528 5529 5531 5533 5535 5537 5539 5541 5544 5548 5552 5555 5558 5561 5564 5566 5568 5569 5569 5569 5568 5567 5565 5561 5557
5520 5517 5517 5518 5516 5514 5513 5513 5513 5513 5514 5513 5513 5517 5515 5515 5516 5516 5516 5518 5520 5522 5523 5525 5526 5528 5531 5534 5536 5539 5542 5545 5548 5550 5552 5553 5554 5554 5555 5553 5551 5547 5541 5532
5505 5501 5501 5504 5504 5502 5501 5500 5500 5499 5500 5502 5503 5507 5504 5505 5506 5507 5507 5507 5509 5511 5512 5513 5516 5518 5520 5522 5524 5526 5529 5532 5534 5536 5538 5539 5540 5541 5541 5538 5534 5527 5520 5509
5486 5486 5487 5488 5488 5486 5487 5487 5486 5486 5488 5490 5493 5494 5492 5492 5494 5495 5497 5498 5500 5500 5501 5502 5504 5506 5507 5509 5511 5514 5516 5518 5520 5523 5525 5526 5527 5528 5526 5523 5517 5509 5499 5486
5466 5465 5468 5470 5470 5471 5471 5471 5470 5472 5475 5473 5482 5482 5480 5481 5481 5485 5487 5487 5487 5489 5490 5491 5492 5492 5493 5495 5498 5501 5502 5505 5508 5511 5513 5514 5515 5514 5512 5507 5500 5491 5478 5462
5449 5447 5449 5452 5454 5453 5455 5454 5456 5457 5458 5462 5463 5470 5463 5468 5472 5474 5476 5477 5478 5479 5481 5482 5482 5482 5482 5483 5486 5489 5491 5494 5497 5499 5502 5503 5502 5501 5498 5493 5485 5475 5458 5443
5429 5428 5428 5430 5435 5436 5438 5438 5440 5442 5442 5445 5448 5450 5452 5455 5458 5462 5463 5466 5468 5469 5471 5472 5473 5473 5473 5474 5476 5479 5481 5484 5486 5489 5491 5491 5490 5489 5485 5479 5471 5458 5442 5433
5416 5416 5416 5416 5419 5424 5422 5423 5426 5428 5428 5430 5433 5434 5436 5441 5444 5447 5450 5453 5456 5459 5460 5462 5463 5463 5464 5464 5466 5468 5471 5473 5475 5478 5479 5479 5479 5477 5473 5467 5458 5445 5432 5425
5412 5411 5411 5411 5413 5415 5414 5416 5417 5417 5420 5420 5422 5423 5425 5425 5429 5434 5439 5442 5445 5447 5449 5451 5452 5453 5454 5454 5455 5458 5460 5462 5464 5466 5468 5469 5468 5467 5462 5457 5448 5435 5425 5417
5408 5408 5407 5406 5406 5406 5406 5408 5409 5407 5411 5412 5412 5413 5414 5415 5418 5422 5425 5428 5433 5435 5438 5440 5441 5442 5444 5445 5445 5447 5450 5452 5454 5456 5458 5458 5458 5456 5453 5447 5439 5428 5419 5411
5405 5405 5405 5405 5403 5402 5401 5400 5400 5401 5403 5401 5399 5399 5400 5403 5407 5410 5413 5417 5420 5424 5426 5429 5431 5432 5433 5435 5435 5437 5440 5442 5444 5446 5448 5448 5448 5447 5445 5439 5432 5422 5414 5408
5403 5404 5403 5403 5401 5400 5398 5396 5395 5395 5393 5391 5391 5388 5388 5391 5395 5397 5400 5404 5408 5413 5416 5418 5421 5422 5423 5424 5426 5427 5430 5432 5434 5436 5438 5439 5439 5438 5437 5432 5426 5418 5410 5408
5405 5403 5401 5399 5395 5392 5390 5389 5388 5387 5385 5381 5380 5378 5376 5379 5383 5385 5389 5391 5395 5400 5404 5408 5411 5412 5414 5414 5416 5418 5420 5422 5424 5426 5428 5429 5430 5430 5429 5426 5421 5414 5407 5406
5407 5403 5400 5396 5393 5389 5386 5385 5383 5381 5377 5372 5365 5363 5365 5368 5369 5373 5376 5380 5383 5388 5393 5397 5400 5403 5404 5405 5406 5409 5411 5412 5415 5417 5419 5420 5422 5422 5422 5420 5417 5412 5404 5399
5408 5404 5400 5397 5394 5390 5386 5383 5380 5376 5371 5366 5359 5353 5352 5358 5361 5365 5368 5370 5373 5377 5381 5385 5389 5392 5394 5396 5396 5399 5401 5403 5405 5407 5410 5412 5413 5414 5415 5413 5412 5410 5404 5396
5406 5402 5399 5394 5391 5387 5384 5380 5375 5371 5366 5361 5355 5351 5348 5351 5355 5358 5360 5362 5366 5369 5372 5375 5378 5381 5384 5386 5387 5389 5391 5394 5396 5398 5401 5403 5406 5407 5408 5406 5405 5404 5402 5397